Tracking 19792 objects as of 17-Jul-2019
HD Live streaming from Space Station
objects crossing your sky now

FENGYUN 1C DEB

Track FENGYUN 1C DEB now!
10-day predictions


NORAD ID: 30665
Int'l Code: 1999-025APX
Perigee: 841.7 km
Apogee: 960.4 km
Inclination: 99.1 °
Period: 102.9 minutes
Semi major axis: 7272 km
RCS: 0.026 m2 (small)
Launch date: May 10, 1999
Source: People's Republic of China (PRC)
Launch site: Taiyaun Space Center, China (TSC)

Note: This is SATELLITE DEBRIS
aabbcc
Your satellite tracking list
Your tracking list is empty




NASA's NSSDC Master Catalog

Two Line Element Set (TLE):
1 30665U 99025APX 19197.27721948  .00000433  00000-0  31540-3 0  9998
2 30665  99.0586 126.7101 0081568 198.6732 316.3095 13.99963702631636
Source of the keplerian elements: AFSPC